Date,TemperatureHighF,TemperatureAvgF,TemperatureLowF,DewpointHighF,DewpointAvgF,DewpointLowF,HumidityHigh,HumidityAvg,HumidityLow,PressureMaxIn,PressureMinIn,WindSpeedMaxMPH,WindSpeedAvgMPH,GustSpeedMaxMPH,PrecipitationSumIn
2013-1-1,32.5,30.1,22.6,32.3,27.2,17.1,99,89,72,30.22,30.08,4,1,7,0.01
2013-1-2,29.7,19.4,9.3,17.3,10.0,1.1,89,70,31,30.31,30.20,2,0,4,0.00
2013-1-3,27.7,18.5,3.2,14.6,8.2,-1.7,87,66,51,30.32,30.25,3,1,4,0.00
2013-1-4,27.7,27.6,23.4,19.3,12.2,12.0,78,52,51,30.37,30.32,2,2,4,0.02
2013-1-5,40.8,27.4,11.7,26.8,18.6,8.4,89,71,42,30.38,30.18,6,0,11,0.00
2013-1-6,37.6,32.7,24.3,31.3,23.7,17.1,80,69,59,30.42,30.07,7,2,13,0.00
2013-1-7,44.6,25.9,11.8,22.6,17.4,8.8,93,74,32,30.49,30.26,4,0,9,0.00
2013-1-8,52.9,30.6,15.8,28.2,21.0,13.2,96,73,30,30.33,30.23,4,0,8,0.00
2013-1-9,57.0,42.4,28.6,47.4,33.7,22.6,99,75,32,30.54,30.23,4,1,7,0.09
2013-1-10,46.4,37.1,27.3,46.1,34.6,26.9,99,92,54,30.54,30.06,3,0,8,0.15
2013-1-11,63.3,54.6,46.2,56.8,50.5,46.0,99,87,58,30.07,29.88,8,2,15,0.35
2013-1-12,67.5,57.4,45.1,65.2,55.0,44.9,99,92,63,30.04,29.72,7,1,16,0.85
2013-1-13,65.5,41.1,25.7,65.2,40.5,21.3,99,98,82,30.26,29.67,8,2,13,0.87
2013-1-14,27.5,24.1,19.0,22.1,17.1,12.7,91,75,57,30.48,30.25,0,0,0,0.00
2013-1-15,33.8,26.9,19.4,23.5,18.4,-19.0,94,72,10,30.42,30.12,5,1,8,0.00
2013-1-16,37.0,32.2,29.5,25.2,19.2,8.3,83,60,31,30.15,30.03,4,1,7,0.00
2013-1-17,43.2,33.8,26.8,28.7,20.9,12.1,91,61,32,30.46,30.13,11,2,17,0.00
2013-1-18,46.9,31.6,17.4,23.3,13.0,-4.1,92,54,12,30.55,30.23,5,1,12,0.00
2013-1-19,59.0,48.0,40.1,31.8,15.6,6.5,54,28,13,30.24,29.95,11,4,17,0.00
2013-1-20,47.5,33.9,25.0,33.4,1.7,-17.9,61,28,10,30.31,30.00,9,3,15,0.00
2013-1-21,25.0,19.7,12.0,11.5,-2.8,-22.4,61,39,13,30.33,30.19,8,2,14,0.00
2013-1-22,21.6,12.5,5.0,-7.2,-14.0,-27.5,53,31,10,30.45,30.32,5,1,10,0.00
2013-1-23,31.8,20.6,8.8,11.4,-2.2,-11.8,64,39,16,30.41,30.14,6,0,9,0.00
2013-1-24,29.3,22.3,14.7,10.1,-9.0,-25.9,59,30,10,30.62,30.20,12,2,20,0.00
2013-1-25,30.6,24.4,18.0,15.1,4.4,-28.2,82,46,15,30.42,30.09,5,1,49,0.00
2013-1-26,37.9,26.9,11.1,18.5,6.5,0.2,86,50,21,30.40,30.16,4,1,7,0.00
2013-1-27,42.3,37.5,32.9,42.0,14.2,1.5,99,45,21,30.41,30.11,3,1,6,0.15
2013-1-28,56.5,50.3,42.1,56.2,49.8,41.8,99,98,84,30.14,30.04,6,1,11,0.26
2013-1-29,66.6,60.0,54.1,61.3,58.2,53.9,99,94,83,30.05,29.49,8,2,20,0.00
2013-1-30,68.2,48.4,28.8,62.7,45.8,19.0,99,91,66,29.73,29.33,10,3,20,0.77
2013-1-31,32.4,25.5,12.9,23.0,12.1,-2.4,92,57,40,30.20,29.73,10,4,19,0.00
2013-2-1,21.2,12.4,5.7,6.5,-1.5,-7.2,68,53,36,30.48,30.20,8,2,12,0.00
2013-2-2,32.9,25.4,14.9,25.1,18.1,5.7,92,74,50,30.33,30.04,6,1,11,0.00
2013-2-3,29.8,29.8,29.8,21.9,21.9,21.9,72,72,72,30.07,30.07,1,1,4,0.00
2013-2-4,29.8,29.8,29.8,21.9,21.9,21.9,72,72,72,30.07,30.07,1,1,4,0.00
2013-2-5,42.6,34.6,26.4,31.1,25.3,21.9,99,69,49,30.08,29.89,5,1,11,0.02
2013-2-6,40.5,33.2,27.5,27.8,24.5,20.8,91,71,48,30.31,30.08,6,1,9,0.00
2013-2-7,66.2,44.1,29.1,48.5,28.0,13.1,99,62,13,30.21,29.83,3,0,6,0.11
2013-2-8,48.0,35.7,29.5,47.8,29.6,20.1,99,79,61,30.39,29.86,10,3,18,0.01
2013-2-9,49.8,32.7,20.8,27.1,18.0,5.3,99,62,17,30.45,30.19,4,0,6,0.00
2013-2-10,55.4,44.8,34.7,50.8,31.8,11.8,99,63,32,30.19,29.77,8,1,14,0.11
2013-2-11,53.4,46.7,39.7,52.4,31.6,20.0,99,58,36,30.01,29.77,11,4,22,0.00
2013-2-12,51.1,41.6,26.6,27.9,19.0,-0.3,86,45,12,30.19,29.95,5,1,8,0.00
2013-2-13,50.9,36.1,30.2,29.8,22.2,0.1,92,62,14,29.96,29.83,5,1,8,0.00
2013-2-14,36.0,35.0,34.0,32.8,31.2,29.6,91,86,78,29.92,29.91,3,1,7,0.00
2013-2-15,41.0,32.1,22.1,27.6,21.0,6.0,91,67,23,30.22,30.03,8,1,10,0.00
2013-2-16,32.4,25.2,16.9,18.5,2.1,-12.3,91,41,15,30.20,30.12,8,2,14,0.00
2013-2-17,43.2,25.6,12.9,13.5,-1.1,-19.2,79,39,10,30.28,30.17,6,1,8,0.00
2013-2-18,63.5,43.4,23.9,45.0,18.5,2.3,96,43,10,30.18,29.66,11,2,21,0.33
2013-2-19,47.1,30.3,24.4,46.1,16.1,3.3,99,57,34,30.21,29.66,9,1,16,0.18
2013-2-20,31.8,23.2,15.6,8.8,0.9,-9.9,63,39,18,30.37,30.21,4,1,8,0.00
2013-2-21,35.4,24.7,13.3,29.5,15.3,8.9,93,70,34,30.38,29.98,7,1,11,0.00
2013-2-22,38.8,35.0,31.3,36.2,31.1,23.3,99,86,65,30.04,29.87,6,1,13,0.25
2013-2-23,43.5,33.4,25.3,23.7,15.6,8.2,69,50,24,30.06,29.96,4,1,10,0.00
2013-2-24,48.7,32.2,19.4,23.5,16.1,2.9,89,58,16,30.18,30.02,5,0,8,0.00
2013-2-25,51.1,35.8,21.9,23.8,15.6,-2.8,96,54,11,30.18,29.87,6,1,10,0.00
2013-2-26,44.4,40.3,34.9,44.2,34.7,12.6,99,85,33,29.87,29.41,8,1,14,0.61
2013-2-27,41.4,35.5,33.1,41.1,34.1,27.6,99,95,79,29.79,29.55,10,3,17,0.06
2013-2-28,33.4,33.1,32.7,30.3,28.6,27.3,90,83,78,29.78,29.77,7,2,9,0.00
2013-3-1,37.2,33.6,32.0,32.7,30.5,27.5,99,89,69,30.09,30.00,4,2,7,0.01
2013-3-2,31.8,29.9,28.0,30.0,20.5,13.9,93,68,51,30.16,30.08,8,2,10,0.00
2013-3-3,34.7,31.9,22.8,22.3,12.4,9.2,80,46,37,30.17,30.12,6,3,8,0.00
2013-3-4,40.3,34.8,34.5,14.2,11.2,11.0,37,37,33,30.15,29.97,4,4,7,0.00
2013-3-5,40.6,36.3,28.9,38.2,27.5,14.0,99,75,34,29.98,29.69,5,0,11,0.26
2013-3-6,33.4,30.6,28.9,30.1,29.1,27.5,99,94,84,30.32,29.80,0,0,0,0.00
2013-3-7,39.2,33.1,28.9,30.0,27.1,22.2,98,80,53,30.42,30.30,2,0,4,0.09
2013-3-8,32.4,32.4,32.4,27.2,27.2,27.2,81,81,81,30.41,30.41,0,0,1,0.09
2013-3-9,32.4,32.4,32.4,27.2,27.2,27.2,81,81,81,30.41,30.41,0,0,1,0.09
2013-3-10,70.9,48.8,32.4,29.1,20.3,6.1,81,48,10,30.41,29.76,11,1,17,0.09
2013-3-11,61.3,47.7,35.4,54.1,40.4,28.6,99,78,29,29.95,29.67,10,3,16,0.09
2013-3-12,48.9,39.8,34.3,28.6,17.8,5.6,76,44,19,30.08,29.95,8,2,15,0.00
2013-3-13,44.4,34.2,26.1,20.1,12.8,8.3,70,43,25,30.39,30.03,7,2,11,0.00
2013-3-14,47.3,33.8,17.2,31.9,15.2,-9.7,96,59,10,30.41,30.22,6,1,8,0.00
2013-3-15,55.8,41.0,25.5,36.7,30.4,25.3,99,72,36,30.23,29.74,3,0,6,0.02
2013-3-16,60.6,48.0,38.3,50.6,37.7,29.0,99,68,48,30.07,29.65,11,3,16,0.01
2013-3-17,39.9,36.6,34.2,34.3,27.5,23.2,99,70,56,30.16,29.96,8,2,11,0.24
2013-3-18,46.4,39.7,34.3,46.1,38.4,33.7,99,95,86,29.96,29.66,8,2,12,0.69
2013-3-19,46.0,36.0,26.8,36.9,10.8,-10.4,95,41,10,30.18,29.90,10,3,19,0.00
2013-3-20,35.4,29.6,24.3,20.8,5.8,-13.5,80,40,13,30.17,30.07,11,2,15,0.00
2013-3-21,40.8,27.4,19.8,12.3,-0.8,-18.3,71,36,10,30.11,30.02,8,2,11,0.00
2013-3-22,50.4,32.1,14.9,19.7,3.8,-11.8,89,42,10,30.12,30.01,4,0,8,0.00
2013-3-23,56.7,43.4,34.3,23.1,8.1,-7.3,63,29,10,30.09,29.91,8,2,13,0.00
2013-3-24,41.0,36.4,31.1,33.2,25.0,10.4,99,68,29,29.91,29.45,9,2,15,0.06
2013-3-25,34.7,31.7,29.1,33.0,30.7,28.9,99,96,89,30.06,29.51,5,1,8,0.05
2013-3-26,41.4,35.1,30.4,31.1,22.3,8.9,94,64,28,30.32,30.06,8,2,10,0.20
2013-3-27,45.0,35.4,23.2,27.9,16.6,1.6,99,54,17,30.37,30.31,5,1,8,0.00
2013-3-28,56.7,37.9,21.4,29.8,13.1,-4.0,93,51,10,30.42,30.30,6,1,8,0.00
2013-3-29,59.4,41.6,26.2,30.0,16.1,-2.0,95,48,10,30.36,30.23,4,1,6,0.00
2013-3-30,66.6,46.4,27.0,32.6,17.0,1.4,97,46,10,30.27,29.97,5,1,9,0.00
2013-3-31,63.9,51.9,45.1,48.3,38.5,23.1,99,67,25,29.97,29.83,9,2,13,0.02
2013-4-1,51.6,43.7,32.7,39.9,11.5,-10.5,78,34,10,30.20,29.88,10,3,14,0.00
2013-4-2,51.1,36.1,21.7,22.9,6.4,-13.3,90,41,10,30.33,30.19,8,1,14,0.00
2013-4-3,54.1,37.8,20.3,18.8,2.9,-11.2,84,34,10,30.44,30.30,8,1,12,0.00
2013-4-4,65.8,46.0,30.2,17.6,-3.6,-9.7,59,14,10,30.32,30.02,2,1,3,0.00
2013-4-5,64.8,46.7,27.7,27.5,12.3,-3.4,78,35,10,30.17,30.03,10,2,15,0.00
2013-4-6,77.0,55.9,34.7,27.5,14.9,-1.6,74,28,10,30.19,29.86,8,1,21,0.00
2013-4-7,78.3,67.5,58.6,58.0,20.6,5.6,97,21,10,30.01,29.86,11,2,14,0.20
2013-4-8,74.5,63.6,53.4,58.6,52.4,46.6,99,71,39,30.01,29.88,10,2,19,0.05
2013-4-9,83.3,68.6,51.6,60.0,53.3,43.4,99,65,25,30.05,29.92,11,2,18,0.00
2013-4-10,85.8,75.1,66.9,62.9,58.9,54.3,81,59,35,29.96,29.75,10,2,17,0.00
2013-4-11,76.3,63.2,51.1,65.9,59.8,50.8,99,91,43,29.83,29.57,9,1,16,0.87
2013-4-12,51.1,44.2,37.9,50.8,31.5,22.4,99,63,33,29.98,29.65,10,3,15,0.01
2013-4-13,60.6,48.5,38.8,36.6,26.8,12.9,80,48,17,30.06,29.98,11,2,16,0.00
2013-4-14,78.6,58.5,36.3,42.1,29.0,14.5,99,49,10,30.06,29.83,7,1,11,0.00
2013-4-15,78.8,65.9,58.6,49.8,45.3,35.1,63,49,27,30.01,29.89,7,1,14,0.00
2013-4-16,79.2,64.1,53.2,64.6,57.5,49.4,99,80,50,30.20,29.93,10,2,13,0.26
2013-4-17,81.9,61.8,52.9,70.3,60.1,52.6,99,95,59,30.20,29.91,8,1,11,1.11
2013-4-18,83.8,70.4,59.4,69.2,62.6,51.9,99,81,39,29.91,29.61,11,2,17,0.17
2013-4-19,63.3,42.5,37.4,63.1,34.2,21.8,99,75,45,30.05,29.60,8,3,16,0.54
2013-4-20,56.1,42.5,30.6,37.8,22.8,-2.3,99,57,10,30.43,30.05,8,1,12,0.00
2013-4-21,64.4,46.6,29.8,31.5,18.0,1.7,99,47,10,30.54,30.36,5,1,8,0.00
2013-4-22,43.2,39.1,33.8,32.5,28.6,25.9,95,67,52,30.37,30.32,2,0,4,0.00
2013-4-23,68.5,63.0,45.1,62.9,50.7,36.8,99,67,34,30.15,29.80,6,1,13,0.04
2013-4-24,66.7,45.8,35.1,60.0,40.3,24.9,99,83,41,30.27,29.82,8,2,11,0.57
2013-4-25,61.5,45.3,29.1,41.9,25.0,1.7,99,58,10,30.41,30.26,7,1,13,0.01
2013-4-26,70.3,51.4,31.3,45.8,22.2,6.5,99,48,10,30.46,30.34,4,0,8,0.00
2013-4-27,63.1,53.1,41.5,55.3,43.4,27.4,99,73,27,30.37,30.01,4,0,9,0.02
2013-4-28,66.2,58.0,54.9,62.3,56.9,54.6,99,96,74,30.02,29.88,5,1,10,0.15
2013-4-29,73.6,61.7,55.2,58.8,52.7,42.8,99,77,35,30.05,29.94,4,1,6,0.01
2013-4-30,89.6,68.4,46.9,62.7,48.2,37.1,99,58,17,30.07,29.96,4,1,8,0.00
2013-5-1,91.2,70.5,50.9,61.6,46.3,25.1,99,55,10,30.18,30.06,4,0,8,0.00
2013-5-2,85.3,70.5,57.4,60.3,51.6,35.0,99,59,18,30.21,30.07,4,0,8,0.00
2013-5-3,79.0,67.7,59.5,65.9,57.4,46.6,99,75,32,30.08,29.91,4,0,11,0.05
2013-5-4,65.8,59.2,54.1,60.7,51.6,38.7,99,79,40,30.06,29.94,4,0,8,0.14
2013-5-5,55.4,53.6,52.0,55.1,53.3,51.7,99,99,99,30.04,29.93,2,0,6,0.58
2013-5-6,67.1,59.8,52.2,61.9,56.3,51.9,99,89,69,30.00,29.89,4,1,6,0.06
2013-5-7,73.8,64.0,55.4,64.1,55.1,47.5,99,76,43,30.03,29.96,4,0,5,0.00
2013-5-8,81.3,66.0,53.2,70.1,55.5,44.1,99,74,28,30.06,29.98,3,0,4,0.02
2013-5-9,84.0,65.7,54.3,67.9,56.9,37.2,99,81,21,30.06,29.92,8,1,14,0.52
2013-5-10,68.0,64.4,55.6,67.7,64.1,55.3,99,99,97,29.95,29.85,4,1,6,0.04
2013-5-11,64.2,53.9,48.4,57.5,46.6,26.3,99,79,34,30.08,29.93,4,1,8,0.02
2013-5-12,61.0,49.1,36.0,45.4,27.4,5.9,99,53,13,30.18,30.08,5,1,8,0.00
2013-5-13,68.4,51.7,32.9,49.9,24.7,5.2,99,52,10,30.25,30.14,4,1,7,0.00
2013-5-14,84.6,64.7,41.5,60.7,44.0,29.1,99,56,23,30.16,29.85,10,2,14,0.00
2013-5-15,71.1,70.1,67.3,60.7,56.3,54.9,79,62,57,29.90,29.88,4,2,6,0.00
2013-5-16,75.6,70.2,62.6,65.4,59.0,54.8,99,69,50,30.01,29.89,4,1,7,0.00
2013-5-17,83.8,70.1,56.7,68.8,60.7,43.9,99,76,31,30.07,30.01,5,0,10,0.00
2013-5-18,79.0,69.2,63.0,72.2,66.1,62.6,99,91,59,30.08,29.98,2,0,4,0.00
2013-5-19,87.3,73.9,60.4,75.5,64.0,56.5,99,76,36,30.03,29.88,4,0,5,0.00
2013-5-20,84.6,77.1,69.4,74.2,69.1,62.5,99,79,50,30.00,29.87,6,1,10,0.00
2013-5-21,82.2,73.2,62.6,71.3,63.5,56.7,99,74,43,29.99,29.81,7,2,14,0.26
2013-5-22,75.4,70.3,63.9,68.7,63.1,56.8,99,79,53,29.84,29.77,6,1,12,0.00
2013-5-23,69.1,60.9,51.4,64.9,56.7,46.8,99,87,56,30.20,29.83,4,1,8,0.02
2013-5-24,67.8,55.9,43.7,47.7,39.4,19.4,99,62,17,30.40,30.19,4,0,6,0.00
2013-5-25,47.5,45.1,40.8,45.8,44.7,40.6,99,98,87,30.40,30.34,1,0,2,0.00
2013-5-26,46.0,46.0,46.0,45.8,45.8,45.8,99,99,99,30.39,30.39,0,0,2,0.00
2013-5-27,82.9,67.0,46.0,68.5,55.0,45.8,99,71,37,30.39,29.92,5,1,11,0.28
2013-5-28,83.1,73.4,62.8,68.7,64.2,57.9,99,76,45,30.03,29.92,8,1,14,0.00
2013-5-29,87.3,77.4,67.8,66.2,57.7,47.7,92,53,27,30.10,30.00,6,1,10,0.00
2013-5-30,86.4,78.2,65.1,67.4,63.5,60.3,99,63,44,30.11,29.98,8,1,12,0.00
2013-5-31,77.4,72.9,64.0,74.1,68.2,63.0,99,86,64,30.07,29.91,4,1,8,0.93
2013-6-1,75.7,70.4,64.6,72.3,67.3,63.2,99,90,73,29.96,29.80,6,1,11,0.46
2013-6-2,72.3,67.5,62.4,68.1,61.8,56.1,99,83,59,30.02,29.88,4,1,7,0.00
2013-6-3,70.9,61.5,53.4,59.2,50.6,43.2,96,70,38,30.14,30.01,2,0,4,0.00
2013-6-4,77.0,63.4,47.7,63.2,48.9,38.1,99,67,26,30.18,30.07,4,0,8,0.00
2013-6-5,82.6,68.4,53.4,64.5,55.3,46.4,99,69,29,30.11,29.89,2,0,5,0.00
2013-6-6,78.4,68.7,62.4,73.5,63.9,60.6,99,87,56,29.91,29.80,3,0,4,0.08
2013-6-7,65.3,64.1,62.8,65.0,63.8,62.5,99,99,99,29.86,29.85,1,0,2,0.00
2013-6-8,80.1,71.8,59.2,65.9,59.8,48.1,99,70,34,30.05,29.92,2,0,4,0.00
2013-6-9,82.8,71.0,61.0,71.9,62.8,50.1,99,79,34,30.08,29.87,4,0,12,0.00
2013-6-10,76.8,69.8,65.5,69.9,65.9,59.1,99,88,59,29.93,29.83,4,1,8,0.05
2013-6-11,85.5,74.0,61.2,71.2,63.6,56.3,99,74,39,30.04,29.92,4,0,5,0.00
2013-6-12,89.6,79.6,66.4,77.8,70.0,66.1,99,76,49,29.99,29.77,4,1,8,0.00
2013-6-13,86.2,76.1,64.2,68.8,57.9,42.9,79,55,30,30.04,29.70,4,1,9,0.00
2013-6-14,82.6,69.4,54.5,65.0,56.3,48.1,99,67,32,30.12,29.99,3,0,5,0.00
2013-6-15,64.4,62.2,60.4,63.8,61.9,60.2,99,99,98,30.12,30.07,0,0,1,0.00
2013-6-16,73.6,70.5,67.5,73.3,69.1,61.3,99,96,66,30.08,29.98,2,0,4,0.09
2013-6-17,87.8,74.6,65.7,79.3,67.9,58.5,99,82,39,30.02,29.90,5,0,8,0.00
2013-6-18,86.7,72.0,65.1,70.1,64.7,54.6,99,81,40,30.03,29.91,5,0,9,1.44
2013-6-19,79.9,68.5,61.2,72.2,64.0,57.2,99,87,47,30.14,30.02,2,0,4,0.00
2013-6-20,86.4,73.9,60.4,73.2,60.8,45.2,99,70,26,30.23,30.14,2,0,5,0.00
2013-6-21,88.3,76.4,60.8,75.7,63.7,54.9,99,70,33,30.24,30.08,2,0,6,0.00
2013-6-22,88.2,74.1,67.6,76.6,69.1,64.8,99,87,49,30.20,30.09,4,0,7,0.76
2013-6-23,85.1,73.2,64.2,80.9,69.2,64.0,99,88,57,30.16,30.09,4,0,9,0.00
2013-6-24,82.0,75.0,69.8,73.0,70.9,67.7,99,88,64,30.18,30.06,4,0,7,0.00
2013-6-25,88.3,78.1,66.9,76.8,71.5,63.2,99,82,54,30.09,29.92,4,0,13,0.00
2013-6-26,81.5,70.9,66.4,76.3,69.4,66.1,99,95,74,30.03,29.79,6,0,10,2.03
2013-6-27,86.4,76.6,68.4,80.5,70.9,68.0,99,84,57,29.85,29.77,2,0,4,0.01
2013-6-28,85.6,77.4,65.5,71.1,61.6,47.3,99,61,27,29.79,29.65,4,0,11,0.26
2013-6-29,78.3,68.1,61.9,74.2,65.6,61.6,99,93,62,29.71,29.63,2,0,4,0.37
2013-6-30,77.4,67.7,64.2,73.0,66.6,64.0,99,97,71,29.88,29.70,2,0,5,0.47
2013-7-1,71.1,66.6,63.1,70.3,66.2,62.9,99,99,91,29.97,29.86,2,0,4,0.27
2013-7-2,78.8,69.8,64.2,71.7,65.5,60.6,99,88,55,30.06,29.95,3,0,7,0.00
2013-7-3,79.2,69.6,61.7,69.5,63.7,59.3,99,83,54,30.14,30.04,3,0,7,0.00
2013-7-4,75.9,69.0,62.1,73.9,66.9,61.8,99,93,77,30.18,30.10,2,0,4,0.00
2013-7-5,81.0,72.3,64.6,71.2,67.2,63.6,99,85,56,30.17,30.10,2,0,4,0.00
2013-7-6,73.9,70.8,67.1,71.7,68.9,64.6,99,94,74,30.15,30.08,2,0,4,0.06
2013-7-7,83.1,73.1,64.2,72.4,66.4,61.5,99,82,49,30.15,30.07,3,0,5,0.00
2013-7-8,85.5,76.5,65.1,76.5,69.9,64.9,99,82,57,30.18,30.08,3,0,7,0.00
2013-7-9,87.3,80.2,73.2,77.1,74.1,71.7,99,82,62,30.12,30.00,3,0,8,0.00
2013-7-10,84.9,77.8,69.1,76.5,72.2,65.1,99,83,63,30.04,29.85,4,0,9,0.00
2013-7-11,80.4,72.2,63.1,71.5,60.5,50.1,99,70,39,30.07,29.97,4,0,6,0.00
2013-7-12,80.4,69.8,56.8,68.8,56.1,46.2,99,67,34,30.15,30.06,2,0,5,0.00
2013-7-13,83.5,71.2,59.0,68.0,61.2,55.3,99,75,39,30.15,30.08,2,0,7,0.00
2013-7-14,89.8,78.2,64.8,75.6,66.9,61.3,99,72,39,30.24,30.14,2,0,8,0.17
2013-7-15,88.0,79.4,70.5,82.4,70.6,64.5,99,78,48,30.32,30.23,3,0,6,0.01
2013-7-16,91.4,80.8,68.9,81.8,71.1,63.5,99,76,41,30.37,30.30,2,0,4,0.00
2013-7-17,92.3,81.9,70.9,81.8,72.5,64.4,99,77,40,30.37,30.22,2,0,4,0.00
2013-7-18,93.0,82.6,71.8,82.9,71.9,57.4,99,74,33,30.26,30.07,2,0,4,0.00
2013-7-19,90.0,81.5,72.3,82.4,72.4,68.0,99,76,53,30.09,29.93,4,0,8,0.00
2013-7-20,88.5,76.2,68.9,71.1,69.5,62.4,99,81,51,29.98,29.90,5,1,10,0.19
2013-7-21,84.4,74.8,65.7,76.8,69.0,61.8,99,84,49,30.01,29.90,2,0,3,0.01
2013-7-22,80.8,73.8,68.9,76.9,71.7,68.6,99,93,70,29.96,29.82,5,0,17,0.07
2013-7-23,87.1,75.0,66.6,77.8,70.6,63.5,99,87,61,29.91,29.79,4,0,7,0.11
2013-7-24,76.3,68.2,58.8,63.9,56.4,49.9,97,68,43,30.04,29.89,2,0,4,0.00
2013-7-25,78.3,66.8,54.5,64.2,53.1,37.0,99,68,25,30.14,30.04,3,0,4,0.00
2013-7-26,79.5,68.3,55.0,66.8,58.2,49.4,99,74,37,30.13,29.98,2,0,7,0.00
2013-7-27,76.3,68.7,60.4,67.0,58.7,48.8,99,74,42,30.00,29.90,4,0,5,0.34
2013-7-28,72.3,63.0,50.4,61.1,49.8,37.1,99,67,33,30.10,29.99,4,0,7,0.00
2013-7-29,78.4,66.5,52.7,63.7,54.1,46.5,99,69,34,30.20,30.09,2,0,4,0.00
2013-7-30,79.7,69.5,59.5,70.3,63.8,55.6,99,84,46,30.24,30.13,2,0,4,0.02
2013-7-31,76.3,69.8,65.3,70.4,67.6,65.0,99,93,79,30.14,29.98,2,0,3,0.00
2013-8-1,81.7,72.3,63.9,70.1,62.7,49.5,99,76,34,30.06,29.99,3,0,6,0.00
2013-8-2,79.9,70.0,57.6,67.4,62.1,56.9,99,78,52,30.06,29.99,4,0,7,0.00
2013-8-3,81.9,74.2,67.3,76.0,66.7,59.6,99,79,52,30.10,29.98,2,0,4,0.05
2013-8-4,78.3,68.6,57.0,65.8,56.7,42.7,99,71,30,30.20,30.09,2,0,4,0.00
2013-8-5,81.3,69.2,55.4,63.9,57.2,43.2,99,71,29,30.16,29.97,2,0,6,0.00
2013-8-6,81.1,73.4,66.6,73.4,68.2,61.4,99,85,68,29.99,29.93,2,0,4,0.00
2013-8-7,83.1,75.4,68.0,76.5,71.7,67.7,99,89,68,29.97,29.90,2,0,4,0.00
2013-8-8,87.1,77.5,71.6,77.1,71.9,66.3,99,85,51,29.99,29.90,2,0,5,0.48
2013-8-9,82.4,75.4,72.0,75.9,71.3,62.8,99,88,54,30.07,29.95,2,0,4,0.01
2013-8-10,84.6,75.4,68.9,72.8,66.9,57.5,99,79,42,30.14,30.06,2,0,4,0.00
2013-8-11,83.8,74.1,65.5,76.5,64.3,53.8,99,76,37,30.14,30.08,2,0,4,0.00
2013-8-12,81.7,72.1,61.2,75.3,67.6,60.9,99,87,60,30.13,29.91,3,0,5,0.00
2013-8-13,77.4,70.6,58.8,73.3,61.6,45.8,99,75,51,30.13,29.91,3,0,8,0.00
2013-8-14,70.3,60.9,50.9,55.9,47.8,8.4,99,67,31,30.22,30.12,3,0,6,0.00
2013-8-15,70.7,57.3,48.0,58.3,51.8,47.8,99,85,47,30.21,30.12,1,0,2,0.00
2013-8-16,76.1,67.1,52.5,60.4,54.0,47.6,99,66,39,30.19,30.14,2,0,4,0.00
2013-8-17,80.1,67.3,55.2,62.4,56.6,48.4,99,73,36,30.23,30.13,2,0,4,0.00
2013-8-18,82.2,69.7,58.3,67.1,58.2,45.4,99,73,30,30.22,30.11,2,0,4,0.00
2013-8-19,84.6,70.5,57.6,67.4,59.8,49.0,99,75,32,30.19,30.08,2,0,4,0.00
2013-8-20,87.3,72.5,60.3,70.4,63.6,55.5,99,78,36,30.19,30.10,2,0,7,0.00
2013-8-21,87.8,75.3,63.3,73.9,65.2,52.8,99,76,31,30.19,30.08,2,0,4,0.00
2013-8-22,87.3,74.3,64.8,73.4,68.3,62.4,99,84,44,30.15,30.06,4,0,7,0.21
2013-8-23,85.3,74.2,67.8,73.9,66.4,58.5,99,80,42,30.17,30.08,2,0,5,0.02
2013-8-24,86.4,72.1,60.1,67.7,58.4,32.9,99,71,15,30.29,30.16,3,0,4,0.00
2013-8-25,86.7,71.8,57.4,68.7,57.0,40.5,99,70,21,30.36,30.24,2,0,5,0.00
2013-8-26,88.0,74.6,61.3,72.8,65.7,58.9,99,78,39,30.28,30.11,2,0,4,0.00
2013-8-27,90.1,78.3,69.3,76.3,70.7,65.8,99,80,47,30.14,30.01,2,0,5,0.00
2013-8-28,93.9,82.5,74.1,76.6,67.7,54.5,99,67,28,30.03,29.95,4,1,8,0.14
2013-8-29,88.0,78.4,70.3,77.9,70.3,58.9,99,80,40,30.08,30.01,2,0,4,0.00
2013-8-30,70.3,67.5,65.5,70.1,67.3,65.2,99,99,99,30.02,30.01,0,0,2,0.00
2013-8-31,94.5,80.9,71.6,76.9,71.5,65.6,99,77,40,29.89,29.75,4,1,7,0.76
2013-9-1,84.6,79.3,71.1,74.8,71.1,67.7,99,77,59,29.86,29.80,2,0,4,1.11
2013-9-2,83.5,74.2,66.4,74.2,67.0,12.2,99,81,10,29.95,29.84,6,0,97,0.00
2013-9-3,74.1,66.4,59.4,66.1,55.0,44.7,99,71,38,30.11,29.94,4,0,6,0.00
2013-9-4,80.4,65.8,52.3,65.6,55.8,45.9,99,76,31,30.20,30.10,2,0,4,0.00
2013-9-5,83.7,69.3,57.0,69.0,60.1,50.5,99,78,34,30.24,30.15,2,0,4,0.00
2013-9-6,82.8,70.6,59.0,69.5,60.9,50.6,99,76,40,30.26,30.11,2,0,4,0.00
2013-9-7,86.0,72.1,59.5,70.6,63.1,55.0,99,78,37,30.13,29.99,4,0,6,0.00
2013-9-8,85.1,74.8,68.0,77.3,69.4,62.9,99,86,49,30.03,29.96,2,0,4,0.08
2013-9-9,91.2,77.5,64.9,73.3,67.5,60.9,99,76,38,30.06,29.97,4,0,8,0.00
2013-9-10,93.6,79.9,72.1,76.6,71.9,63.9,99,80,40,30.17,30.04,3,0,8,0.14
2013-9-11,90.9,78.2,70.3,75.4,69.9,59.1,99,81,35,30.18,30.07,1,0,2,0.00
2013-9-12,79.3,74.2,67.5,74.6,68.8,47.3,99,85,43,30.07,29.93,2,0,4,0.51
2013-9-13,66.6,60.3,51.1,56.7,47.7,35.8,99,67,33,30.14,30.01,5,1,9,0.00
2013-9-14,70.9,56.0,43.5,53.1,43.3,22.5,99,71,17,30.23,30.12,3,0,6,0.00
2013-9-15,72.1,51.4,43.3,57.0,47.0,42.2,99,89,35,30.17,30.12,2,0,8,0.00
2013-9-16,68.7,63.3,55.4,62.7,56.1,51.5,98,78,56,30.31,30.09,2,0,4,0.00
2013-9-17,74.5,62.1,51.1,58.0,51.8,44.8,99,74,36,30.33,30.18,1,0,4,0.00
2013-9-18,78.1,65.5,55.8,66.2,60.5,55.5,99,86,57,30.19,30.08,2,0,4,0.00
2013-9-19,79.9,70.8,64.2,75.3,69.2,63.9,99,95,73,30.15,29.98,2,0,4,1.16
2013-9-20,79.7,72.0,68.4,72.4,69.8,66.1,99,94,66,30.01,29.86,3,0,5,0.09
2013-9-21,69.3,59.6,53.2,67.9,55.0,42.6,99,88,38,29.95,29.82,2,0,3,0.12
2013-9-22,67.8,56.2,46.0,57.7,48.7,41.8,99,80,40,30.05,29.94,3,0,5,0.00
2013-9-23,69.8,56.1,43.7,55.7,46.6,39.1,99,77,33,30.14,30.04,3,0,7,0.00
2013-9-24,76.5,60.7,48.4,63.2,53.6,48.1,99,81,45,30.09,29.91,4,0,7,0.00
2013-9-25,76.8,65.9,58.3,64.1,59.7,54.2,99,83,47,29.95,29.89,2,0,6,0.00
2013-9-26,77.0,62.2,50.2,60.9,52.9,40.8,99,78,31,30.10,29.95,2,0,4,0.00
2013-9-27,79.0,63.1,50.5,62.7,53.7,43.7,99,78,29,30.20,30.09,3,0,7,0.00
2013-9-28,81.1,64.1,50.2,66.7,54.9,44.0,99,78,28,30.19,30.06,3,0,8,0.00
2013-9-29,64.0,61.4,56.8,63.8,61.1,56.4,99,99,92,30.08,30.02,2,0,4,0.17
2013-9-30,70.0,64.0,60.1,67.4,63.3,59.8,99,97,84,30.06,29.98,2,0,4,0.01
2013-10-1,78.1,65.5,56.5,67.9,61.6,56.2,99,89,54,30.11,30.03,3,0,5,0.00
2013-10-2,75.4,68.3,61.3,72.2,67.1,61.1,99,96,80,30.14,30.06,2,0,2,0.00
2013-10-3,81.7,72.0,66.0,72.5,66.8,61.8,99,85,53,30.11,30.00,4,0,10,0.01
2013-10-4,82.6,71.7,63.5,72.5,68.2,63.2,99,90,59,30.11,30.02,2,0,6,0.00
2013-10-5,74.8,70.1,65.5,74.4,69.9,65.2,99,99,90,30.07,29.92,4,0,8,0.65
2013-10-6,67.1,60.2,49.3,66.8,58.3,40.7,99,94,58,29.93,29.80,4,0,7,1.58
2013-10-7,65.5,52.7,47.1,49.9,43.9,38.6,99,74,41,30.19,29.88,4,0,9,0.00
2013-10-8,69.8,47.4,41.7,58.2,44.3,33.3,99,92,26,30.29,30.19,2,0,3,0.01
2013-10-9,75.6,57.1,41.7,57.1,47.9,40.7,99,77,32,30.26,30.17,3,0,6,0.00
2013-10-10,74.7,57.7,45.1,59.2,50.1,43.7,99,81,34,30.23,30.10,2,0,4,0.00
2013-10-11,77.0,58.1,44.6,63.4,48.3,33.8,99,78,24,30.15,30.05,3,0,5,0.00
2013-10-12,77.4,60.7,46.4,65.2,54.0,46.1,99,83,34,30.16,30.07,4,0,7,0.00
2013-10-13,70.5,61.9,49.8,62.5,47.5,23.1,99,66,17,30.37,30.15,3,0,5,0.00
2013-10-14,70.5,55.0,43.0,52.1,44.2,28.6,99,75,23,30.38,30.20,3,0,6,0.00
2013-10-15,68.5,59.6,50.2,65.8,58.4,49.9,99,96,79,30.20,29.96,2,0,6,0.00
2013-10-16,65.7,58.1,46.0,65.4,51.0,39.3,99,80,44,30.02,29.91,4,0,6,0.04
2013-10-17,58.5,47.8,41.9,51.4,44.1,39.2,99,89,51,30.01,29.93,4,0,8,0.18
2013-10-18,66.7,50.2,36.7,52.6,40.7,32.2,99,77,28,30.06,29.96,5,0,10,0.00
2013-10-19,54.3,46.4,38.5,46.0,41.3,28.3,99,85,37,30.03,29.91,4,0,8,0.45
2013-10-20,64.8,49.7,35.6,43.0,36.3,27.1,99,67,25,30.05,29.98,8,1,11,0.00
2013-10-21,63.7,53.0,45.1,43.9,40.2,26.8,92,64,40,30.04,29.93,6,1,10,0.00
2013-10-22,54.0,42.9,30.6,42.1,28.2,10.3,96,62,19,30.10,29.82,4,0,7,0.05
2013-10-23,47.7,42.6,37.4,45.1,32.6,20.5,99,71,35,30.11,29.77,5,1,9,0.06
2013-10-24,39.9,37.5,34.7,33.7,30.1,25.2,91,75,58,30.18,30.09,2,0,4,0.00
2013-10-25,51.1,37.3,27.1,31.8,21.0,0.0,98,63,12,30.49,30.31,2,0,4,0.01
2013-10-26,58.5,42.9,28.0,35.3,26.6,22.0,93,56,30,30.30,29.97,4,1,7,0.00
2013-10-27,61.5,43.3,30.0,41.0,26.7,5.9,97,63,12,30.15,30.06,4,0,5,0.00
2013-10-28,66.2,43.5,28.2,40.2,25.0,4.2,98,63,10,30.32,30.11,2,0,5,0.00
2013-10-29,56.1,44.4,32.4,50.1,38.6,31.6,99,82,56,30.37,30.20,1,0,2,0.06
2013-10-30,67.3,58.2,50.4,65.9,57.9,50.1,99,99,86,30.20,29.99,4,0,7,0.19
2013-10-31,67.3,63.2,57.6,66.7,61.0,54.3,99,93,69,30.01,29.38,11,2,16,0.86
2013-11-1,64.2,54.9,47.7,57.8,43.5,33.9,99,69,34,29.83,29.48,8,2,14,0.01
2013-11-2,56.8,48.1,37.4,43.3,35.9,24.6,99,67,29,30.02,29.81,5,1,11,0.00
2013-11-3,58.5,41.8,30.4,41.6,28.5,13.2,99,69,17,30.36,30.16,2,0,4,0.00
2013-11-4,57.9,50.7,34.3,39.6,34.1,29.4,96,54,36,30.37,30.28,3,0,8,0.00
2013-11-5,64.9,53.8,46.8,51.4,40.6,33.4,99,65,33,30.41,30.18,3,0,8,0.02
2013-11-6,61.9,55.3,42.1,57.7,45.4,33.5,99,74,37,30.18,29.99,7,2,17,0.40
2013-11-7,52.0,43.9,33.3,41.6,20.6,-1.1,98,45,13,30.35,30.15,5,1,9,0.00
2013-11-8,57.9,39.8,27.1,33.7,22.0,-1.2,99,59,10,30.42,30.24,4,0,6,0.00
2013-11-9,64.8,51.8,38.5,35.3,24.1,15.9,57,35,18,30.24,30.05,9,2,15,0.00
2013-11-10,56.8,45.2,29.8,35.8,21.4,-0.2,85,45,10,30.38,30.17,5,1,9,0.00
2013-11-11,57.6,41.2,27.7,39.3,28.5,10.4,98,69,16,30.35,30.13,9,1,14,0.02
2013-11-12,38.8,31.4,24.6,32.8,18.7,8.7,99,62,29,30.68,30.35,8,3,13,0.00
2013-11-13,44.4,29.7,18.0,22.8,11.7,-11.1,90,57,10,30.68,30.41,5,1,12,0.01
2013-11-14,58.3,43.5,28.4,20.4,2.7,-9.4,69,24,10,30.41,30.15,7,2,13,0.00
2013-11-15,54.9,44.5,33.1,38.5,17.4,-0.9,69,37,11,30.17,30.08,5,1,9,0.00
2013-11-16,64.4,55.5,48.0,60.7,48.8,38.0,99,79,53,30.10,29.84,5,1,13,0.05
2013-11-17,68.0,61.5,52.7,66.5,54.5,32.3,99,81,38,29.87,29.49,15,2,33,0.76
2013-11-18,54.7,50.1,36.0,36.1,24.1,9.9,69,40,17,30.26,29.87,11,3,15,0.00
2013-11-19,48.2,34.8,25.7,29.5,23.4,16.6,94,67,31,30.38,30.26,3,0,6,0.00
2013-11-20,60.4,40.5,25.5,25.7,21.7,4.9,92,54,11,30.33,30.19,3,0,6,0.00
2013-11-21,59.9,50.1,42.6,50.8,40.7,23.9,99,73,39,30.30,30.19,3,0,7,0.00
2013-11-22,53.4,47.2,36.5,53.2,43.2,28.3,99,86,66,30.45,30.19,8,2,12,0.00
2013-11-23,36.3,29.7,20.7,29.1,15.4,0.9,88,57,33,30.65,30.43,10,3,17,0.00
2013-11-24,37.8,22.6,14.2,9.0,1.5,-16.2,70,44,10,30.74,30.54,4,1,7,0.00
2013-11-25,36.5,28.9,16.3,23.7,7.8,-6.8,77,45,16,30.55,30.20,4,0,8,0.00
2013-11-26,38.1,34.6,31.8,28.1,21.4,14.1,81,60,39,30.24,29.99,8,1,11,0.00
2013-11-27,33.3,24.9,15.1,19.0,7.3,-7.0,71,48,20,30.35,30.03,8,2,12,0.00
2013-11-28,42.3,25.9,14.0,13.8,4.6,-13.9,79,50,10,30.48,30.28,7,1,14,0.00
2013-11-29,51.3,28.6,14.2,21.0,8.1,-8.1,81,53,10,30.65,30.47,3,0,4,0.00
2013-11-30,58.5,37.2,21.7,25.9,11.4,-5.4,84,45,10,30.50,30.18,6,0,10,0.00
2013-12-1,59.0,43.8,32.2,29.2,20.9,9.2,83,43,20,30.19,29.99,4,0,8,0.00
2013-12-2,57.6,40.0,30.2,33.8,30.2,26.9,92,71,32,30.00,29.78,1,0,4,0.00
2013-12-3,53.2,42.3,29.7,49.5,39.3,27.9,99,90,76,29.87,29.78,2,0,4,0.00
2013-12-4,68.0,54.3,41.9,61.6,51.6,41.6,99,91,69,29.84,29.67,4,0,6,0.00
2013-12-5,65.1,41.9,26.6,55.2,35.0,24.9,94,77,59,30.24,29.77,6,2,11,0.21
2013-12-6,26.8,24.9,23.5,25.0,22.9,21.2,94,92,89,30.32,30.19,0,0,0,0.00
2013-12-7,23.5,14.4,8.6,19.7,9.6,3.5,85,81,76,30.64,30.46,0,0,0,0.00
2013-12-8,14.9,14.9,14.9,10.2,10.2,10.2,81,81,81,30.64,30.64,0,0,0,0.00
2013-12-9,33.8,23.0,14.9,22.8,13.0,7.6,82,66,40,30.64,30.13,0,0,0,0.00
2013-12-10,31.1,21.8,10.8,15.9,8.2,-6.6,82,58,19,30.38,30.22,0,0,0,0.00
2013-12-11,10.6,3.8,2.7,3.4,-3.2,-4.5,75,72,70,30.40,30.35,0,0,0,0.00
2013-12-12,26.6,14.7,-0.6,0.8,-14.4,-27.5,71,34,10,30.60,30.36,6,1,11,0.00
2013-12-13,41.9,25.9,6.6,27.5,5.6,-5.4,78,47,16,30.37,30.12,8,0,13,0.05
2013-12-14,37.0,34.6,31.8,36.5,32.5,27.5,99,92,78,30.14,29.75,6,1,8,0.50
2013-12-15,31.8,27.2,24.8,28.1,17.3,9.6,86,66,47,30.15,29.94,0,0,0,0.00
2013-12-16,28.4,28.3,27.7,25.6,25.0,20.5,89,87,74,30.14,30.09,0,0,0,0.00
2013-12-17,28.4,28.4,28.4,25.6,25.6,25.6,89,89,89,30.10,30.10,0,0,0,0.00
2013-12-18,44.8,33.2,19.8,25.6,9.0,-12.9,89,46,10,30.31,30.05,5,1,11,0.01
2013-12-19,56.7,48.9,36.1,40.9,27.5,6.3,62,44,26,30.08,29.93,8,2,14,0.00
2013-12-20,62.4,58.6,53.6,60.9,48.9,39.5,99,71,52,29.94,29.80,11,3,17,0.20
2013-12-21,61.0,50.2,46.0,60.7,49.9,45.6,99,99,99,29.84,29.49,6,1,11,3.44
2013-12-22,61.2,46.2,41.0,60.7,45.3,38.1,99,97,88,29.92,29.39,10,4,15,0.04
2013-12-23,32.2,27.2,21.7,24.8,17.4,12.9,74,66,62,30.45,30.22,6,2,10,0.00
2013-12-24,28.8,16.3,7.5,13.2,-0.2,-10.4,70,49,19,30.62,30.45,6,1,9,0.01
2013-12-25,32.4,26.4,18.9,19.7,10.7,5.4,65,52,38,30.48,30.23,5,1,9,0.00
2013-12-26,44.2,35.1,30.2,22.6,16.3,0.2,66,48,18,30.40,30.22,6,2,12,0.00
2013-12-27,52.9,37.4,24.1,25.6,19.8,11.6,81,52,20,30.43,30.30,4,1,8,0.00
2013-12-28,37.9,37.2,34.2,26.2,25.0,23.6,69,61,59,30.31,30.28,3,2,5,0.00
2013-12-29,48.7,37.6,29.5,38.5,29.5,16.3,96,75,35,30.28,29.86,8,2,12,0.07
2013-12-30,29.7,24.2,20.7,24.6,9.1,-2.7,84,54,28,30.32,30.13,4,2,8,0.00
2013-12-31,24.3,23.9,21.7,9.8,6.3,4.5,55,46,45,30.28,30.22,4,1,10,0.00
2014-1-1,49.6,33.3,22.1,24.6,12.7,6.0,78,44,19,30.28,30.03,8,1,12,0.00
2014-1-2,34.9,22.8,9.5,29.9,16.9,0.0,91,78,62,30.38,29.90,2,0,3,0.00